KF7FMI-13 Weather Reports


time (UTC)temp
F
wind
direction
speed
knots
gust
knots
rain 1hr
in
rain 24hr
in
rain mn
in
humidity
%
barometer
mb
20260506002522 83 78 2.6 5.2 0.00 0.00 0.00 31 1013.5
20260506001527 82 64 5.2 7.0 0.00 0.00 0.00 32 1013.6
20260506000531 82 43 4.3 7.0 0.00 0.00 0.00 34 1013.7
20260505235517 83 99 3.5 6.1 0.00 0.00 0.00 32 1013.7
20260505234521 83 39 6.1 7.0 0.00 0.00 0.00 33 1013.8
20260505233526 81 0.0 0.0 0.00 0.00 0.00 34 1013.8
20260505232544 83 39 5.2 7.8 0.00 0.00 0.00 33 1013.9
20260505231517 82 27 5.2 7.0 0.00 0.00 0.00 33 1014.0
20260505230521 82 358 3.5 7.8 0.00 0.00 0.00 33 1014.2
20260505225520 83 42 8.7 10.4 0.00 0.00 0.00 34 1014.2
20260505224518 82 355 1.7 5.2 0.00 0.00 0.00 32 1014.3
20260505223516 82 0 5.2 6.1 0.00 0.00 0.00 33 1014.4
20260505222520 80 27 7.0 11.3 0.00 0.00 0.00 34 1014.4
20260505221545 81 32 6.1 7.8 0.00 0.00 0.00 33 1014.4
20260505220530 81 42 7.0 12.2 0.00 0.00 0.00 33 1014.6
20260505215515 81 44 7.0 10.4 0.00 0.00 0.00 33 1014.6
20260505214519 81 42 7.8 11.3 0.00 0.00 0.00 33 1014.6
20260505213524 81 38 5.2 8.7 0.00 0.00 0.00 33 1014.6
20260505212528 79 45 8.7 15.6 0.00 0.00 0.00 35 1014.6
20260505211533 80 41 11.3 15.6 0.00 0.00 0.00 36 1014.8
20260505210519 80 43 9.6 13.9 0.00 0.00 0.00 36 1014.8
20260505205523 79 39 11.3 13.9 0.00 0.00 0.00 37 1014.8
20260505204527 79 34 8.7 13.0 0.00 0.00 0.00 36 1014.9
20260505203532 78 17 9.6 17.4 0.00 0.00 0.00 36 1014.9
20260505202518 78 21 10.4 13.9 0.00 0.00 0.00 38 1015.0
20260505201523 78 38 9.6 13.0 0.00 0.00 0.00 39 1015.0
20260505200526 77 38 10.4 16.5 0.00 0.00 0.00 38 1015.1
20260505195530 77 46 10.4 11.3 0.00 0.00 0.00 39 1015.0
20260505194517 77 42 11.3 14.8 0.00 0.00 0.00 39 1015.0
20260505193521 76 38 11.3 13.9 0.00 0.00 0.00 41 1015.0
20260505192605 74 38 12.2 14.8 0.00 0.00 0.00 41 1015.0
20260505191530 75 43 10.4 16.5 0.00 0.00 0.00 42 1015.0
20260505190516 75 42 12.2 15.6 0.00 0.00 0.00 41 1015.1
20260505185601 75 45 8.7 10.4 0.00 0.00 0.00 43 1015.1
20260505184525 73 43 12.2 15.6 0.00 0.00 0.00 43 1015.2
20260505183529 74 39 8.7 13.0 0.00 0.00 0.00 43 1015.2
20260505182516 73 39 13.0 14.8 0.00 0.00 0.00 43 1015.1
20260505181520 72 38 12.2 15.6 0.00 0.00 0.00 44 1015.1
20260505180525 72 30 9.6 13.9 0.00 0.00 0.00 46 1015.0
20260505175528 69 35 13.0 17.4 0.00 0.00 0.00 47 1014.9
20260505174527 68 39 15.6 19.1 0.00 0.00 0.00 49 1014.9
20260505173519 67 44 13.0 15.6 0.00 0.00 0.00 49 1014.9
20260505172524 67 46 12.2 14.8 0.00 0.00 0.00 50 1014.8
20260505171522 67 43 11.3 13.9 0.00 0.00 0.00 50 1014.9
20260505170520 69 32 8.7 11.3 0.00 0.00 0.00 49 1014.9
20260505165519 68 53 7.8 11.3 0.00 0.00 0.00 50 1014.9
20260505164517 68 39 8.7 11.3 0.00 0.00 0.00 50 1014.9
20260505163515 66 44 8.7 10.4 0.00 0.00 0.00 53 1014.9
20260505162531 66 39 9.6 12.2 0.00 0.00 0.00 52 1014.8
20260505161517 64 39 7.8 11.3 0.00 0.00 0.00 56 1014.8
20260505160542 63 39 7.0 9.6 0.00 0.00 0.00 57 1014.6
20260505152521 62 44 7.0 8.7 0.00 0.00 0.00 59 1014.2
20260505151526 62 40 7.0 8.7 0.00 0.00 0.00 57 1014.2
20260505150530 61 197 3.5 5.2 0.00 0.00 0.00 59 1013.8
20260505140540 61 34 9.6 13.9 0.00 0.00 0.00 59 1012.8
20260505124518 59 35 10.4 13.9 0.00 0.00 0.00 62 1012.3
20260505123522 58 42 11.3 12.2 0.00 0.00 0.00 66 1012.3
20260505122526 58 39 4.3 7.0 0.00 0.00 0.00 66 1012.3
20260505121531 58 40 8.7 10.4 0.00 0.00 0.00 67 1012.1
20260505120517 57 35 7.0 7.0 0.00 0.00 0.00 70 1012.0
20260505115521 58 51 4.3 5.2 0.00 0.00 0.00 67 1012.0
20260505114526 60 39 3.5 4.3 0.00 0.00 0.00 60 1011.9
20260505113544 61 0.0 0.0 0.00 0.00 0.00 57 1011.9
20260505112557 61 0.0 0.0 0.00 0.00 0.00 57 1011.8
20260505111540 61 0.0 0.0 0.00 0.00 0.00 56 1011.8
20260505110519 61 0.0 0.0 0.00 0.00 0.00 56 1011.5
20260505101529 64 226 3.5 5.2 0.00 0.00 0.00 51 1011.2
20260505100533 64 206 3.5 5.2 0.00 0.00 0.00 52 1011.0
20260505095519 65 302 4.3 6.1 0.00 0.00 0.00 51 1010.9
20260505094524 60 298 4.3 6.1 0.00 0.00 0.00 60 1010.8
20260505093528 62 349 3.5 6.1 0.00 0.00 0.00 56 1010.7
20260505092532 63 311 5.2 6.1 0.00 0.00 0.00 55 1010.7
20260505091519 62 290 5.2 5.2 0.00 0.00 0.00 57 1010.7
20260505090543 65 337 4.3 5.2 0.00 0.00 0.00 52 1010.7
20260505085527 65 299 7.0 8.7 0.00 0.00 0.00 51 1010.7
20260505084532 65 346 4.3 6.1 0.00 0.00 0.00 51 1010.7
20260505083518 64 292 7.8 8.7 0.00 0.00 0.00 51 1010.7
20260505082522 66 276 7.0 9.6 0.00 0.00 0.00 49 1010.6
20260505081526 67 272 7.8 8.7 0.00 0.00 0.00 47 1010.6
20260505080612 68 278 9.6 12.2 0.00 0.00 0.00 46 1010.8
20260505075518 67 279 8.7 10.4 0.00 0.00 0.00 48 1010.6
20260505074522 67 24 3.5 5.2 0.00 0.00 0.00 47 1010.5
20260505073526 67 287 3.5 7.0 0.00 0.00 0.00 47 1010.4
20260505072531 67 0.0 0.0 0.00 0.00 0.00 48 1010.3
20260505071557 67 240 1.7 3.5 0.00 0.00 0.00 50 1010.2
20260505070521 67 270 4.3 4.3 0.00 0.00 0.00 50 1010.1
20260505065525 68 282 5.2 7.8 0.00 0.00 0.00 47 1010.1
20260505064530 68 2 4.3 6.1 0.00 0.00 0.00 44 1010.0
20260505063516 67 0.0 0.0 0.00 0.00 0.00 43 1009.9
20260505062520 67 0.0 0.0 0.00 0.00 0.00 45 1009.9
20260505061524 68 0.0 0.0 0.00 0.00 0.00 44 1009.9
20260505060529 67 37 2.6 5.2 0.00 0.00 0.00 43 1009.9
20260505055515 66 34 0.9 3.5 0.00 0.00 0.00 47 1009.9
20260505054520 69 321 4.3 5.2 0.00 0.00 0.00 40 1009.9
20260505053705 71 318 4.3 5.2 0.00 0.00 0.00 36 1009.9
20260505052522 64 40 1.7 4.3 0.00 0.00 0.00 48 1009.7
20260505051520 65 40 3.5 3.5 0.00 0.00 0.00 49 1009.7
20260505050519 65 45 1.7 5.2 0.00 0.00 0.00 49 1009.9
20260505041522 66 0.0 0.0 0.00 0.00 0.00 45 1009.7
20260505040526 67 0.0 0.0 0.00 0.00 0.00 50 1009.4
20260505035531 68 0.0 0.0 0.00 0.00 0.00 51 1009.4
20260505034517 69 0.0 0.0 0.00 0.00 0.00 48 1009.4
20260505033521 69 0.0 0.0 0.00 0.00 0.00 45 1009.3
20260505032525 70 0.0 0.0 0.00 0.00 0.00 40 1009.3
20260505031530 72 0.0 0.0 0.00 0.00 0.00 41 1009.1
20260505030516 76 0.0 0.0 0.00 0.00 0.00 33 1008.9
20260505025520 77 0.0 0.0 0.00 0.00 0.00 33 1008.9
20260505024545 78 0.0 0.0 0.00 0.00 0.00 32 1008.9
20260505023529 80 0.0 0.0 0.00 0.00 0.00 31 1008.9
20260505022515 81 0.0 0.0 0.00 0.00 0.00 29 1009.0
20260505021519 82 0.0 0.0 0.00 0.00 0.00 29 1009.0
20260505020524 83 0.0 0.0 0.00 0.00 0.00 28 1009.0
20260505015549 84 96 0.9 4.3 0.00 0.00 0.00 27 1009.1
20260505014533 83 112 3.5 6.1 0.00 0.00 0.00 28 1009.1
20260505013519 84 62 5.2 7.0 0.00 0.00 0.00 27 1009.1
20260505012544 85 68 5.2 6.1 0.00 0.00 0.00 27 1009.2
20260505011528 85 45 1.7 4.3 0.00 0.00 0.00 27 1009.3
20260505010537 86 20 4.3 7.8 0.00 0.00 0.00 25 1009.4
20260505005518 85 60 4.3 5.2 0.00 0.00 0.00 27 1009.3
20260505004523 85 36 6.1 7.8 0.00 0.00 0.00 26 1009.4
20260505003527 85 46 7.0 7.8 0.00 0.00 0.00 27 1009.4